Location: Cairo Bend
(36.2389°N, 86.4003°W)
Time: 03:18:36
(UTC+00:00)

Daily predictions for brighter satellites

Satellite Brightness Start Highest point End
(mag) Time Altitude Azimuth Time Altitude Azimuth Time Altitude Azimuth
GPS 2-04 Rocket1 4.2 00:38:09 10° SSW 00:41:11 21° SSE 00:44:18 10° ESE
STARLINK-29 4.4 00:47:33 10° WSW 00:50:33 38° NW 00:53:35 10° NNE
NOSS 3-4 (A) 4.4 00:51:19 10° NNW 00:58:06 44° NE 01:05:00 12° ESE
NOSS 3-4 (C) 4.4 00:51:26 10° NNW 00:58:13 44° NE 01:05:04 12° ESE
SL-8 R/B 4.0 00:55:04 10° WNW 00:59:48 63° SW 01:04:30 10° SE
SeaSat 1 3.4 00:56:05 10° NNE 01:00:53 54° WNW 01:05:40 10° SW
H-2A R/B 2.2 00:58:23 10° SSE 01:03:26 52° ENE 01:08:21 10° N
Cosmos 1300 4.2 01:02:34 14° ESE 01:03:58 17° E 01:06:28 10° NE
YAOGAN 1 4.3 01:00:18 10° SSW 01:04:15 35° W 01:08:14 10° NNW
ATLAS 5 CENTAUR R/B 1.8 01:01:05 10° SW 01:05:05 69° NW 01:09:30 10° NNE
SJ-6B 3.8 01:01:41 11° SE 01:05:14 31° ENE 01:08:54 10° N
Cosmos 2074 Rocket 4.0 01:01:05 10° N 01:07:24 76° E 01:13:40 10° S
Cosmos 1140 Rocket 3.5 01:02:56 10° S 01:08:02 61° ESE 01:13:08 10° NNE
Ariane Rocket 2.9 01:05:59 10° SSE 01:11:01 71° ENE 01:16:04 10° N
FREGAT/IRIS 2.5 01:12:05 17° SSE 01:13:57 48° ENE 01:16:35 10° N
Cosmos 614 Rocket 4.5 01:10:08 10° SSW 01:15:18 65° WNW 01:20:30 10° NNE
APEX 4.2 01:13:07 10° NNW 01:19:08 56° ENE 01:22:42 18° SE
Cosmos 1437 3.7 01:16:47 10° NNW 01:19:41 44° W 01:22:33 10° S
CZ-2C R/B 2.8 01:15:12 10° SSE 01:20:02 68° ENE 01:24:47 10° N
COSMOS 2455 3.7 01:14:53 10° N 01:20:13 32° NE 01:23:28 20° ESE
Hubble Space Telescope 2.0 01:16:52 10° SW 01:20:20 26° S 01:21:59 20° SE
Cosmos 1726 4.2 01:18:31 10° SW 01:21:51 31° WNW 01:25:12 10° NNW
Cosmos 1943 Rocket 4.2 01:18:07 10° NW 01:22:42 27° WSW 01:27:18 10° SSW
Cosmos 1190 Rocket 4.1 01:17:43 10° SSW 01:23:01 82° WNW 01:28:20 10° NNE
Cosmos 1610 Rocket 4.4 01:18:30 10° N 01:24:38 65° E 01:30:41 10° SSE
Cosmos 2058 Rocket 3.0 01:21:02 10° S 01:25:30 68° E 01:29:59 10° NNE
USA 234 3.9 01:20:46 10° ENE 01:26:21 30° SE 01:31:55 10° S
Cosmos 1726 Rocket 3.9 01:23:05 10° SSW 01:27:27 69° W 01:31:53 10° N
Cosmos 1908 3.8 01:24:14 10° SSW 01:28:02 60° W 01:31:53 10° N
Cosmos 1340 Rocket 2.8 01:26:18 10° S 01:30:22 89° E 01:34:25 10° N
ATLAS 2AS CENTAUR R/B 2.8 01:22:58 10° NNW 01:30:26 73° ENE 01:35:25 20° SE
Cosmos 1703 3.3 01:26:29 10° N 01:30:27 82° W 01:34:24 10° S
CZ-2C R/B 3.7 01:26:12 10° NNE 01:30:49 60° E 01:35:19 10° S
Cosmos 1461 3.4 01:27:06 10° NNW 01:31:35 49° ENE 01:33:42 28° ESE
SL-08 RB Rocket 3.8 01:28:45 18° SSE 01:31:59 57° ENE 01:36:29 10° N
SL-24 R/B 3.6 01:30:48 10° NNE 01:34:35 64° E 01:38:11 10° S
Cosmos 921 Rocket 3.4 01:31:51 10° N 01:35:51 41° ENE 01:37:03 33° ESE
Cosmos 2228 4.4 01:33:18 10° SSW 01:37:22 41° W 01:41:29 10° N
Cosmos 1328 4.1 01:33:59 10° NNW 01:37:58 68° W 01:41:55 10° S
USA 186 2.4 01:37:16 13° S 01:40:07 56° W 01:43:16 10° NNW
Cosmos 2369 Rocket 4.3 01:36:29 10° NW 01:41:04 26° WSW 01:45:35 10° SSW
CZ-3 Stage 3 4.3 01:34:03 10° WSW 01:41:07 70° S 02:29:22 10° E
STARLINK-67 3.7 01:38:57 10° NNW 01:40:54 29° NNE 01:40:54 29° NNE
Resurs 01 Rocket 2.4 01:47:58 33° ENE 01:48:12 33° ENE 01:52:08 10° N
Cosmos 676 Rocket 4.2 01:47:01 10° SSW 01:52:18 75° WNW 01:57:35 10° NNE
DMSP B5D2-2 3.9 01:47:15 10° NNE 01:52:30 75° ESE 01:57:43 10° S
COSMOS 2406 3.8 02:00:24 36° E 02:00:24 36° E 02:04:46 10° NE
MetOp-A 4.0 01:58:56 31° SSE 02:01:34 82° ENE 02:06:57 10° N
MOS 1 Rocket 3.5 01:57:23 10° NNE 02:02:51 85° ESE 02:08:15 10° S
STARLINK-1234 4.5 02:02:22 10° NNW 02:04:25 29° N 02:04:25 29° N
STARLINK-1209 4.4 02:02:45 10° NNW 02:04:49 30° N 02:04:49 30° N
SPOT 3 Rocket 3.5 02:05:20 31° S 02:07:54 81° WSW 02:13:08 10° NNW
Abrixas rocket 4.1 02:06:51 10° NNW 02:08:27 21° N 02:08:27 21° N
Cosmos 2341 Rocket 3.9 02:03:36 10° N 02:10:02 81° E 02:13:10 33° SSE
ARGOS 4.3 02:07:46 10° SSW 02:12:49 41° W 02:17:53 10° NNW
CZ-2C R/B 2.5 02:07:38 10° N 02:12:49 83° WNW 02:18:04 10° SSW
GEOS 3 Rocket 4.4 02:11:51 26° S 02:14:19 44° WSW 02:19:16 10° NW
GPS 2-04 Rocket1 3.7 02:16:21 10° WSW 02:19:02 38° SW 02:19:02 38° SW
Cosmos 2218 Rocket 4.0 02:14:36 10° N 02:20:45 58° E 02:21:33 54° ESE
Cosmos 1741 Rocket 3.9 02:21:41 69° SE 02:22:04 72° ESE 02:27:23 10° NNE
Meteor 2-1 Rocket 4.2 02:30:17 65° SSE 02:31:09 78° E 02:37:05 10° NNE
Cosmos 2181 Rocket 4.1 02:26:46 17° SSW 02:31:47 73° W 02:38:00 10° N
SL-8 Rocket 3.9 02:26:06 10° N 02:32:27 88° E 02:33:54 57° S
Cosmos 1763 Rocket 4.5 02:28:00 10° N 02:31:38 34° NE 02:31:38 34° NE
Cosmos 864 Rocket 4.3 02:27:44 10° N 02:33:55 68° E 02:34:08 67° E
Cosmos 2366 rocket 3.8 02:40:34 10° N 02:46:44 90° NE 02:47:02 82° S
Cosmos 1980 Rocket 4.3 02:47:20 10° NNE 02:49:06 14° NE 02:49:06 14° NE
Cosmos 1959 Rocket 4.4 02:44:21 10° N 02:50:39 82° W 02:51:06 76° SSW
Spot 2 Rocket 4.2 03:02:59 49° NNW 03:02:59 49° NNW 03:06:43 10° NNW
Terra 4.2 03:05:23 15° NNE 03:05:23 15° NNE 03:06:22 10° NNE
COSMOS 2455 3.8 03:00:40 10° NW 03:06:09 38° WSW 03:06:38 37° WSW
USA 234 3.5 03:03:06 10° NE 03:09:35 67° NW 03:16:02 10° WSW
Cosmos 1833 Rocket 4.3 03:25:25 26° NNE 03:25:25 26° NNE 03:27:51 10° NNE
Resurs 01 Rocket 4.1 03:25:31 18° W 03:25:31 18° W 03:27:49 10° NW
ATLAS 5 CENTAUR R/B 4.3 03:24:31 10° WSW 04:06:39 13° ESE 04:12:11 10° ESE
CZ-4C R/B 3.7 03:57:10 10° NNW 04:02:32 46° N 04:02:32 46° N
SL-16 R/B 4.4 06:49:02 25° NNE 06:49:02 25° NNE 06:52:00 10° N
Cosmos 2227 Rocket 4.3 07:20:46 22° NE 07:20:46 22° NE 07:22:52 10° NE
Resurs 1-4 Rocket 4.5 07:12:19 10° NNE 07:13:43 19° NNE 07:13:43 19° NNE
ATLAS 3B R/B 4.4 07:31:24 21° E 07:31:24 21° E 07:35:11 10° ENE
CZ-2D R/B 4.1 07:46:08 10° N 07:48:18 24° N 07:48:18 24° N
SL-16 R/B 4.0 07:53:18 10° N 07:58:06 27° ENE 08:02:21 12° ESE
USA 238 DEB 4.3 08:01:50 48° N 08:01:50 48° N 08:07:00 10° NNE
USA 238 4.3 08:01:56 49° N 08:01:56 49° N 08:07:08 10° NNE
Cosmos 2237 Rocket 4.4 08:14:16 10° NNW 08:15:18 16° NNW 08:15:18 16° NNW
CENTAUR R/B 2.7 08:21:28 63° NNE 08:21:28 63° NNE 08:27:04 10° NNE
Cosmos 2263 Rocket 4.3 08:20:38 16° SE 08:22:32 19° E 08:26:21 10° ENE
NOSS 3-2 (A) 4.4 08:24:15 37° NNW 08:24:15 37° NNW 08:28:59 10° NNE
SL-16 R/B 4.4 08:34:06 16° NW 08:34:06 16° NW 08:35:30 10° NW
H-2A R/B 3.9 08:35:25 24° N 08:35:25 24° N 08:37:13 10° N
Cosmos 2297 Rocket 3.6 08:36:12 28° NNW 08:36:12 28° NNW 08:39:36 10° N
Meteor 1-19 Rocket 4.5 08:35:55 61° N 08:35:55 61° N 08:40:26 10° N
Cosmos 2279 Rocket 4.0 08:34:00 10° N 08:40:16 79° E 08:41:02 69° SE
ADEOS II 3.1 08:36:01 10° N 08:39:24 37° NNW 08:39:24 37° NNW
ARIANE 5 R/B 3.0 08:38:20 10° N 08:42:26 55° N 08:42:26 55° N
Meteor 2-9 Rocket 4.3 08:41:11 10° N 08:47:05 76° E 08:48:06 60° SE
Spot 4 Rocket 4.1 08:44:52 10° NNE 08:49:32 73° N 08:49:32 73° N
IDEFIX/ARIANE 42P 3.2 08:45:39 10° NNE 08:50:43 52° E 08:51:46 45° SE
Meteor 2-4 Rocket 3.8 08:52:53 67° SSE 08:53:42 81° E 08:59:35 10° N
NOSS 3-2 (C) 4.1 08:56:26 38° NW 08:56:26 38° NW 09:02:18 10° NNE
Resurs 1-4 Rocket 4.4 08:54:18 10° NW 08:54:48 11° NW 08:54:48 11° NW
Cosmos 2227 Rocket 3.7 09:02:35 22° NW 09:02:35 22° NW 09:06:08 10° N
Cosmos 494 Rocket 3.8 09:02:33 10° NNW 09:07:51 86° WSW 09:09:14 51° S
Cosmos 1300 Rocket 3.8 09:05:47 10° N 09:10:05 65° E 09:10:59 51° SE
BREEZE-M DEB 4.4 09:09:58 43° WNW 09:11:41 58° NNW 09:29:19 10° ENE
COBE Rocket 3.9 09:11:25 31° SSE 09:13:41 75° ENE 09:18:21 10° N
Cosmos 967 Rocket 4.4 09:10:50 10° NNW 09:17:19 89° ENE 09:23:41 10° SSE
Cosmos 2180 Rocket 4.4 09:12:03 10° NNW 09:18:14 65° W 09:20:42 37° SSW
ATLAS 3B R/B 2.7 09:18:39 46° WSW 09:20:24 60° NW 09:26:59 10° NNE
PSLV R/B 4.3 09:17:13 10° NNE 09:21:31 52° E 09:23:41 26° SSE
Cosmos 2221 Rocket 4.3 09:22:29 38° NW 09:22:29 38° NW 09:25:48 10° N
Cosmos 1378 Rocket 4.3 09:21:08 24° SSE 09:23:28 51° E 09:27:42 10° NNE
USA 267 3.5 09:18:02 10° NE 09:24:25 57° NW 09:26:53 37° W
CZ-4B R/B 2.3 09:26:56 14° SSE 09:29:45 51° ENE 09:33:09 10° N
Okean 2 Rocket 3.1 09:26:03 10° NNW 09:30:30 57° W 09:30:36 56° W
Cosmos 1818 3.4 09:25:07 10° NNW 09:30:35 83° WSW 09:36:00 10° SSE
Cosmos 2151 Rocket 3.4 09:28:06 10° N 09:32:31 83° W 09:34:53 27° S
Timation 1 Rocket 4.3 09:33:01 33° SSW 09:35:52 82° WNW 09:41:55 10° NNE
Cosmos 1689 Rocket 4.3 09:36:29 10° SE 09:39:05 27° ENE 09:41:40 10° NNE
Lacrosse 5 4.2 09:37:03 10° SSE 09:40:28 18° ESE 09:43:53 10° ENE
Cosmos 1867 3.8 09:39:06 39° WSW 09:40:47 53° WNW 09:46:09 10° NNE
SL-16 R/B 2.6 09:37:04 10° NW 09:42:14 37° WSW 09:43:47 31° SW
Cosmos 1269 Rocket 4.0 09:37:14 10° NNW 09:42:27 59° WSW 09:47:37 10° S
Geosat 4.2 09:41:18 10° NNE 09:46:20 72° ESE 09:50:09 17° SSW
Cosmos 1066 Rocket 4.4 09:42:02 10° S 09:47:52 79° E 09:53:44 10° N
MSX 3.8 09:42:29 10° N 09:48:14 69° WNW 09:52:25 19° SSW
CZ-2C R/B 2.4 09:48:34 10° NNE 09:53:08 72° ESE 09:57:44 10° S
USA 234 4.5 09:49:53 10° ESE 09:55:55 41° NE 10:01:57 10° NNW
ATLAS 5 CENTAUR R/B 2.5 09:53:13 10° NNW 09:59:17 87° WSW 10:06:13 10° SSE
Cosmos 1437 Rocket 3.0 09:55:41 10° S 09:59:44 74° E 10:03:49 10° NNE
Gbstr 26 Del rocket 4.0 09:57:15 25° WSW 10:00:56 57° NW 10:06:10 10° NE
ATLAS 5 CENTAUR R/B 2.0 10:01:33 23° SW 10:04:29 54° WNW 10:07:01 10° NNE
Cosmos 1603 3.7 10:00:00 10° NNW 10:05:38 86° ENE 10:11:18 10° SSE
STARLINK-1175 4.5 10:03:53 15° S 10:05:49 29° SE 10:08:34 10° ENE
Cosmos 2263 Rocket 2.4 10:02:22 21° SW 10:05:57 52° WNW 10:11:31 10° NNE
STARLINK-1147 4.5 10:04:20 15° S 10:06:18 29° SE 10:09:04 10° ENE
Shenzhou-11 Module 2.0 10:05:54 39° WNW 10:06:25 48° NNW 10:08:55 10° NE
STARLINK-1146 4.5 10:04:46 15° S 10:06:45 30° SE 10:09:32 10° ENE
STARLINK-1152 4.4 10:05:12 15° S 10:07:11 30° SE 10:09:59 10° ENE
STARLINK-1195 4.4 10:05:38 15° S 10:07:37 30° SE 10:10:24 10° ENE
STARLINK-1137 4.4 10:06:03 15° S 10:08:05 31° SE 10:10:53 10° ENE
STARLINK-1142 4.4 10:06:29 15° S 10:08:31 31° SE 10:11:19 10° ENE
Cosmos 1092 Rocket 4.2 10:02:39 11° SSW 10:08:37 52° W 10:14:46 10° N
STARLINK-1127 4.4 10:06:56 15° S 10:09:00 32° SE 10:11:48 10° ENE
STARLINK-1184 4.3 10:07:22 15° S 10:09:26 32° SE 10:12:15 10° ENE
STARLINK-1193 4.3 10:07:47 15° S 10:09:52 32° SE 10:12:41 10° ENE
Cosmos 1975 Rocket 3.7 10:05:43 10° S 10:09:57 58° E 10:14:17 10° NNE
STARLINK-1194 4.3 10:08:13 15° S 10:10:20 33° SE 10:13:10 10° ENE
Okean 1 Rocket 3.0 10:06:23 10° NNW 10:10:46 71° W 10:15:08 10° S
Meteor 1-4 Rocket 4.3 10:11:35 17° WNW 10:11:35 17° WNW 10:14:08 10° NNW
STARLINK-43 3.2 10:08:12 10° NW 10:11:52 62° SW 10:15:30 10° SE
CENTAUR R/B 4.3 10:08:38 11° WNW 10:12:15 18° NW 10:16:42 10° N
Meteor 1-23 Rocket 4.4 10:10:22 10° SSW 10:15:55 53° WNW 10:21:35 10° N
Cosmos 2026 Rocket 3.9 10:10:37 10° SSW 10:16:38 62° W 10:22:39 10° N
Meteor 1-31 Rocket 3.2 10:14:33 10° NNE 10:18:28 64° ESE 10:22:18 10° S
Meteor 1-15 Rocket 4.3 10:21:43 10° NNW 10:27:12 55° W 10:32:44 10° S
IDEFIX/ARIANE 42P 4.1 10:26:31 10° NNW 10:29:52 18° WNW 10:32:34 12° W
SeaSat 1 3.1 10:27:03 10° SE 10:31:54 61° ENE 10:36:46 10° NNW
SL-24 R/B 4.5 10:35:04 10° SSE 10:40:22 88° ENE 10:44:56 10° NNW
ALOS 2.7 10:37:35 10° NNE 10:42:15 67° E 10:46:52 10° S
BREEZE-M DEB (TANK) 2.8 10:41:50 10° SSW 10:44:05 28° SE 10:46:14 10° ENE
Cosmos 1378 3.9 10:41:57 10° SW 10:45:20 33° W 10:48:45 10° NNW
Cosmos 1766 3.2 10:43:40 10° NNW 10:47:30 61° W 10:51:18 10° S
STARLINK-1150 3.3 10:51:41 10° SW 10:55:19 71° NW 10:59:00 10° NE
